date,time,DOY,Ta_1_1_1,RH_1_1_1,LWin_1_1_1,LWout_1_1_1,SWin_1_1_1,SWout_1_1_1,PPFD_1_1_1,SWC_1_1_1,Ts_1_1_1
[yyyy-mm-dd],[HH:MM],[ddd.ddd],[K],[%],[W+1m-2],[W+1m-2],[W+1m-2],[W+1m-2],[µmol+1m-2s-1],[m+3m-3],[K]
2013-07-02,00:30,183.020,285.66866666666664,71.769000000000005,-9999.0,-9999.0,0.37766666666666660,-4.7836666666666652,6.66666666666666644E-004,-9999.0,273.15999999999991
2013-07-02,01:00,183.041,285.22800000000001,75.198666666666668,-9999.0,-9999.0,0.35799999999999993,-4.7723333333333340,0.0000000000000000,-9999.0,273.15999999999991
2013-07-02,01:30,183.062,285.17966666666672,74.198333333333323,-9999.0,-9999.0,0.61700000000000010,-4.5363333333333333,0.0000000000000000,-9999.0,273.15999999999991
2013-07-02,02:00,183.083,285.76766666666674,66.455666666666673,-9999.0,-9999.0,0.65566666666666662,-4.3063333333333338,0.0000000000000000,-9999.0,273.15999999999991
2013-07-02,02:30,183.104,285.45833333333331,69.156333333333322,-9999.0,-9999.0,0.13066666666666668,-4.5593333333333330,6.66666666666666644E-004,-9999.0,273.15999999999991
2013-07-02,03:00,183.124,285.41266666666672,67.980999999999995,-9999.0,-9999.0,0.31500000000000006,-4.3553333333333333,0.0000000000000000,-9999.0,273.15999999999991
2013-07-02,03:30,183.145,284.91399999999999,70.134333333333359,-9999.0,-9999.0,2.46666666666666562E-002,-4.6793333333333331,1.00000000000000002E-003,-9999.0,273.15999999999991
2013-07-02,04:00,183.166,284.52633333333335,65.871333333333325,-9999.0,-9999.0,0.40233333333333332,-4.0869999999999997,0.68333333333333335,-9999.0,273.15999999999991
2013-07-02,04:30,183.187,284.44066666666669,68.305000000000007,-9999.0,-9999.0,2.4573333333333331,4.9133333333333331,14.270333333333332,-9999.0,273.15999999999991
2013-07-02,05:00,183.208,284.33300000000003,72.468666666666664,-9999.0,-9999.0,10.810000000000002,44.541666666666664,75.022666666666666,-9999.0,273.15999999999991
2013-07-02,05:30,183.229,284.86566666666664,68.962999999999994,-9999.0,-9999.0,23.346666666666671,115.58433333333336,189.42633333333336,-9999.0,273.15999999999991
2013-07-02,06:00,183.249,285.73566666666665,64.284333333333350,-9999.0,-9999.0,35.463666666666668,198.00233333333338,342.74999999999994,-9999.0,273.15999999999991
2013-07-02,06:30,183.270,286.70166666666671,65.375666666666660,-9999.0,-9999.0,48.573333333333338,287.45166666666665,521.45633333333319,-9999.0,273.15999999999991
2013-07-02,07:00,183.291,287.78600000000006,60.664333333333339,-9999.0,-9999.0,62.917999999999992,379.59400000000005,707.67033333333336,-9999.0,273.15999999999991
2013-07-02,07:30,183.312,289.18500000000006,58.228333333333332,-9999.0,-9999.0,75.637000000000000,469.43566666666663,894.81100000000004,-9999.0,273.15999999999991
2013-07-02,08:00,183.333,289.74899999999997,55.789666666666676,-9999.0,-9999.0,90.484333333333325,558.31266666666659,1077.0336666666667,-9999.0,273.15999999999991
2013-07-02,08:30,183.354,290.93133333333333,44.027333333333317,-9999.0,-9999.0,103.27333333333331,643.60966666666684,1255.1059999999998,-9999.0,273.15999999999991
2013-07-02,09:00,183.374,291.61166666666674,40.029333333333327,-9999.0,-9999.0,114.94799999999999,719.17066666666676,1414.3356666666668,-9999.0,273.15999999999991
2013-07-02,09:30,183.395,292.04300000000001,40.180666666666667,-9999.0,-9999.0,124.33199999999998,790.38733333333369,1568.2423333333334,-9999.0,273.15999999999991
2013-07-02,10:00,183.416,292.09000000000003,42.222333333333346,-9999.0,-9999.0,133.02499999999998,844.92466666666644,1690.7873333333334,-9999.0,273.15999999999991
2013-07-02,10:30,183.437,292.47133333333335,42.946333333333328,-9.4399999999999995,-9999.0,140.12633333333329,891.46799999999973,1790.5086666666664,-9999.0,273.15999999999991
2013-07-02,11:00,183.458,292.88900000000007,39.613666666666667,-8.1028571428571432,-9999.0,147.90266666666668,932.71299999999997,1876.1230000000000,-9999.0,273.15999999999991
2013-07-02,11:30,183.479,293.52766666666673,38.985333333333337,-8.6500000000000004,-9999.0,149.73333333333332,957.21066666666661,1933.0950000000000,-9999.0,273.15999999999991
2013-07-02,12:00,183.499,294.10766666666660,39.225333333333339,-9999.0,-9999.0,150.93033333333335,968.88466666666659,1967.2933333333333,-9999.0,273.15999999999991
2013-07-02,12:30,183.520,294.21399999999994,38.025999999999996,-8.2393333333333327,-9999.0,151.60633333333331,973.07533333333311,1971.5183333333334,-9999.0,273.15999999999991
2013-07-02,13:00,183.541,294.86633333333333,33.857666666666667,-8.4410526315789483,-9999.0,152.72133333333329,965.17866666666669,1951.7306666666664,-9999.0,273.15999999999991
2013-07-02,13:30,183.562,295.31433333333337,33.683999999999997,-8.9266666666666659,-9999.0,149.17733333333334,935.17899999999997,1902.7719999999999,-9999.0,273.15999999999991
2013-07-02,14:00,183.583,295.37133333333338,34.484999999999999,-9999.0,-9999.0,145.09600000000000,896.50333333333333,1828.4100000000003,-9999.0,273.15999999999991
2013-07-02,14:30,183.604,295.50000000000006,34.240000000000002,-9999.0,-9999.0,140.59433333333334,845.11133333333339,1723.0003333333336,-9999.0,273.15999999999991
2013-07-02,15:00,183.624,295.88933333333341,33.023333333333326,-9999.0,-9999.0,136.04100000000003,797.58700000000022,1625.3196666666670,-9999.0,273.15999999999991
2013-07-02,15:30,183.645,296.01333333333332,31.353666666666658,-9999.0,-9999.0,123.84600000000000,716.11533333333330,1461.6163333333329,-9999.0,273.15999999999991
2013-07-02,16:00,183.666,296.28966666666673,31.010000000000002,-9999.0,-9999.0,112.67766666666665,638.97433333333333,1301.5666666666666,-9999.0,273.15999999999991
2013-07-02,16:30,183.687,296.93900000000002,30.549999999999997,-9999.0,-9999.0,95.719666666666654,543.59966666666662,1114.8596666666665,-9999.0,273.15999999999991
2013-07-02,17:00,183.708,296.09100000000012,35.472000000000001,-9999.0,-9999.0,83.804333333333332,462.86600000000010,938.50733333333312,-9999.0,273.15999999999991
2013-07-02,17:30,183.729,295.61800000000005,37.372666666666660,-9999.0,-9999.0,73.110333333333330,376.53066666666660,752.98033333333342,-9999.0,273.15999999999991
2013-07-02,18:00,183.749,294.39866666666666,42.274666666666668,-9999.0,-9999.0,60.754999999999995,287.59566666666666,565.24066666666681,-9999.0,273.15999999999991
2013-07-02,18:30,183.770,293.85366666666670,43.578333333333333,-9999.0,-9999.0,46.658000000000008,199.90466666666671,386.72466666666662,-9999.0,273.15999999999991
2013-07-02,19:00,183.791,293.30099999999999,45.730333333333334,-9999.0,-9999.0,31.915000000000003,119.99366666666667,232.35866666666666,-9999.0,273.15999999999991
2013-07-02,19:30,183.812,292.49900000000002,46.932333333333339,-9999.0,-9999.0,17.739666666666668,48.641333333333336,105.11466666666668,-9999.0,273.15999999999991
2013-07-02,20:00,183.833,291.37433333333331,51.786333333333332,-9999.0,-9999.0,4.5473333333333352,7.6943333333333319,23.577999999999996,-9999.0,273.15999999999991
2013-07-02,20:30,183.854,290.25733333333335,56.754333333333328,-9999.0,-9999.0,0.29666666666666663,-4.9823333333333331,1.3969999999999998,-9999.0,273.15999999999991
2013-07-02,21:00,183.874,289.26533333333333,61.445000000000007,-9999.0,-9999.0,0.23833333333333337,-5.5183333333333335,1.06666666666666663E-002,-9999.0,273.15999999999991
2013-07-02,21:30,183.895,288.46166666666670,67.321000000000012,-9999.0,-9999.0,0.10466666666666670,-5.7453333333333321,0.0000000000000000,-9999.0,273.15999999999991
2013-07-02,22:00,183.916,288.36366666666669,66.130000000000010,-9999.0,-9999.0,0.64566666666666672,-5.2393333333333336,0.0000000000000000,-9999.0,273.15999999999991
2013-07-02,22:30,183.937,288.30766666666665,65.099999999999994,-9999.0,-9999.0,0.57933333333333337,-5.1756666666666673,3.33333333333333322E-004,-9999.0,273.15999999999991
2013-07-02,23:00,183.958,288.40999999999997,66.768666666666675,-9999.0,-9999.0,0.43200000000000011,-4.6693333333333333,0.0000000000000000,-9999.0,273.15999999999991
2013-07-02,23:30,183.979,287.86966666666666,71.498000000000005,-9999.0,-9999.0,0.11233333333333334,-4.8590000000000000,0.0000000000000000,-9999.0,273.15999999999991
2013-07-03,00:00,184.000,287.56233333333341,68.650333333333336,-9999.0,-9999.0,0.22733333333333333,-4.5230000000000006,0.0000000000000000,-9999.0,273.15999999999991
